GORIZONT 3 [-]

Last updated on Jan. 25, 2020, 4:43 a.m. UTC

1 11648U 79105A   20023.91332001  .00000144  00000-0  00000-0 0  9997
2 11648  11.3344 313.5541 0009157 193.9437 344.7690  1.00291095 99051
UTC
Height (km)
Latitude
Longitude
Inclination
Orbital Period
UTC large
Height (km)
Speed (km/s)
/
Latitude / Longitude
Inclination (degrees)
Orbital Period (minutes)
Azimuth
Elevation
Range (km)
Doppler Factor
iOS Compass Heading
iOS Angle

Next 30 passes for location: Hong Kong

Rise time Rise Azimuth (degrees) Set time Set Azimuth (degrees) Duration Max altitude (degrees)

No matching passes for this satellites